Regional Weather Roundup
Issued by NWS

Home | Current Version | Previous Version | Text Only | Print | Product List | Glossary On
Versions: 1 2 3 4 5 6 7 8 9 10 11 12 13 14 15 16 17 18 19 20 21 22 23 24 25 26 27
000
ASUS45 KCYS 250010
RWRWY

WYOMING REGIONAL WEATHER ROUNDUP
NATIONAL WEATHER SERVICE CHEYENNE WY
600 PM MDT SUN JUL 24 2016

NOTE:  "FAIR" INDICATES FEW OR NO CLOUDS BELOW 12,000 FEET
WITH NO SIGNIFICANT WEATHER AND/OR OBSTRUCTIONS TO VISIBILITY.

WYZ001-250100-
YELLOWSTONE NATIONAL PARK

CITY           SKY/WX    TMP DP  RH WIND       PRES   REMARKS
LK YELLOWSTONE   N/A     73  22  14 VRB3      30.35S
6HR MIN TEMP:  63; 6HR MAX TEMP:  76;

W YELLOWSTONE  NOT AVBL

$$
WYZ002>013-054>058-071-098>099-250100-
NORTHERN WYOMING

CITY           SKY/WX    TMP DP  RH WIND       PRES   REMARKS
JACKSON        SUNNY     82  27  13 SW9       30.21
CODY           FAIR      84  37  18 E7        30.10F
GREYBULL       FAIR      92  28  10 SE7       30.01F
6HR MIN TEMP:  81; 6HR MAX TEMP:  92;

WORLAND        FAIR      91  34  13 NE7       30.03F
6HR MIN TEMP:  80; 6HR MAX TEMP:  92;

SHERIDAN       FAIR      91  38  15 CALM      30.04F
6HR MIN TEMP:  85; 6HR MAX TEMP:  92;

BUFFALO        FAIR      87  38  17 E8G17     30.12F
6HR MIN TEMP:  79; 6HR MAX TEMP:  88;

GILLETTE       FAIR      86  39  19 SE8       30.09F
6HR MIN TEMP:  81; 6HR MAX TEMP:  87;

HULETT         CLOUDY    81  46  30 E14       30.12S
NEWCASTLE      FAIR      86  36  16 S8G18     30.11F

$$
WYZ014>020-022>026-101>103-250100-
CENTRAL WYOMING

CITY           SKY/WX    TMP DP  RH WIND       PRES   REMARKS
BIG PINEY      FAIR      83  24  11 W7        30.25F
6HR MIN TEMP:  75; 6HR MAX TEMP:  86;

PINEDALE       FAIR      81  23  12 N9        30.26F
DUBOIS         FAIR      79  16   9 NW6       30.24F
LANDER         FAIR      88  32  13 NE6       30.12F
6HR MIN TEMP:  77; 6HR MAX TEMP:  89;

RIVERTON       FAIR      87  26  11 E7        30.12F
6HR MIN TEMP:  77; 6HR MAX TEMP:  87;

CASPER         FAIR      87  28  12 VRB3      30.13F
6HR MIN TEMP:  74; 6HR MAX TEMP:  88;

DOUGLAS          N/A    N/A N/A N/A MISG      30.11F

$$
WYZ021-027>030-104>119-250100-
SOUTHERN WYOMING

CITY           SKY/WX    TMP DP  RH WIND       PRES   REMARKS
EVANSTON       FAIR      84  12   6 W16G25    30.27S
6HR MIN TEMP:  79; 6HR MAX TEMP:  87;

KEMMERER         N/A     82  12   7 W15G25    30.28S
FORT BRIDGER   FAIR      87  13   6 W17G29    30.28F
ROCK SPRINGS   FAIR      86  15   7 NW14G22   30.21F
6HR MIN TEMP:  79; 6HR MAX TEMP:  88;

DIXON          FAIR      88  28  11 W3        30.21F
RAWLINS        FAIR      87  16   7 W21G28    30.21F
6HR MIN TEMP:  80; 6HR MAX TEMP:  88;

SARATOGA       FAIR      81  27  13 W12       30.25F
LARAMIE        FAIR      81  29  15 MISG      30.26S
6HR MIN TEMP:  75; 6HR MAX TEMP:  83;

CHEYENNE       FAIR      77  53  43 SE10      30.19F
6HR MIN TEMP:  65; 6HR MAX TEMP:  83; 6HR PCP:  0.07;

TORRINGTON     FAIR      82  50  32 E16G26    30.08F
6HR MIN TEMP:  76; 6HR MAX TEMP:  87; 6HR PCP:  0.01;

PINE BLUFFS    FAIR      68  55  64 S12       30.17F

$$




USA.gov is the U.S. government's official web portal to all federal, state and local government web resources and services.